WA5KWK Weather Reports


Display with metric or nautical units.
time (UTC)temp
F
wind
direction
speed
MPH
gust
MPH
rain 1hr
in
rain 24hr
in
rain mn
in
humidity
%
barometer
mb
20260506215505 66 223 5.0 12.0 0.00 0.00 0.00 72 1018.8
20260506215006 66 255 5.0 9.0 0.00 0.00 0.00 72 1018.8
20260506214505 66 169 4.0 10.0 0.00 0.00 0.00 72 1018.7
20260506214005 66 268 3.0 10.0 0.00 0.00 0.00 73 1018.8
20260506213505 67 284 3.0 7.0 0.00 0.00 0.00 70 1018.8
20260506213004 67 230 2.0 7.0 0.00 0.00 0.00 71 1019.0
20260506212505 66 356 3.0 9.0 0.00 0.00 0.00 70 1019.1
20260506212005 67 266 5.0 8.0 0.00 0.00 0.00 69 1019.2
20260506211505 67 214 2.0 5.0 0.00 0.00 0.00 70 1019.3
20260506211005 66 340 2.0 5.0 0.00 0.00 0.00 73 1019.3
20260506210504 65 167 3.0 8.0 0.00 0.00 0.00 72 1019.4
20260506210004 65 218 3.0 10.0 0.00 0.00 0.00 73 1019.2
20260506205504 64 211 4.0 9.0 0.00 0.00 0.00 73 1019.1
20260506205004 64 225 4.0 8.0 0.00 0.00 0.00 72 1019.2
20260506204505 64 199 5.0 8.0 0.00 0.00 0.00 72 1019.2
20260506203505 65 304 2.0 7.0 0.00 0.00 0.00 72 1019.2
20260506203005 64 280 5.0 12.0 0.00 0.00 0.00 72 1019.3
20260506202505 64 201 4.0 9.0 0.00 0.00 0.00 72 1019.3
20260506202004 64 213 4.0 10.0 0.00 0.00 0.00 73 1019.5
20260506201504 64 229 5.0 10.0 0.00 0.00 0.00 70 1019.4
20260506201004 64 211 5.0 12.0 0.00 0.00 0.00 73 1019.4
20260506200505 64 211 5.0 8.0 0.00 0.00 0.00 71 1019.4
20260506200004 65 204 4.0 8.0 0.00 0.00 0.00 71 1019.4
20260506195505 64 286 2.0 5.0 0.00 0.00 0.00 71 1019.5
20260506195005 64 225 5.0 8.0 0.00 0.00 0.00 71 1019.5
20260506194505 64 148 5.0 10.0 0.00 0.00 0.00 73 1019.7
20260506194005 63 217 5.0 7.0 0.00 0.00 0.00 71 1019.7
20260506193504 64 213 6.0 8.0 0.00 0.00 0.00 68 1019.7
20260506193005 64 185 3.0 6.0 0.00 0.00 0.00 71 1019.6
20260506192011 63 162 3.0 7.0 0.00 0.00 0.00 70 1019.7
20260506191505 63 204 4.0 7.0 0.00 0.00 0.00 70 1019.6
20260506191005 62 192 2.0 6.0 0.00 0.00 0.00 72 1019.7
20260506190505 62 231 3.0 6.0 0.00 0.00 0.00 73 1019.7
20260506190006 62 213 5.0 7.0 0.00 0.00 0.00 71 1019.7
20260506185504 62 187 4.0 8.0 0.00 0.00 0.00 72 1019.8
20260506185005 62 235 4.0 8.0 0.00 0.00 0.00 72 1019.8
20260506184505 62 214 1.0 6.0 0.00 0.00 0.00 74 1019.8
20260506184005 62 190 3.0 8.0 0.00 0.00 0.00 75 1019.9
20260506183505 61 186 3.0 8.0 0.00 0.00 0.00 72 1019.8
20260506183006 61 216 4.0 7.0 0.00 0.00 0.00 75 1019.8
20260506182505 61 193 2.0 9.0 0.00 0.00 0.00 71 1019.9
20260506182004 61 141 3.0 7.0 0.00 0.00 0.00 72 1019.9
20260506181504 61 192 3.0 9.0 0.00 0.00 0.00 72 1019.8
20260506180504 61 179 2.0 3.0 0.00 0.00 0.00 75 1019.9
20260506175504 60 250 5.0 10.0 0.00 0.00 0.00 72 1019.8
20260506175005 60 187 2.0 6.0 0.00 0.00 0.00 76 1019.8
20260506174504 59 194 4.0 7.0 0.00 0.00 0.00 75 1019.7
20260506173504 59 222 3.0 7.0 0.00 0.00 0.00 73 1019.7
20260506173005 59 221 4.0 7.0 0.00 0.00 0.00 73 1019.6
20260506172505 59 250 1.0 3.0 0.00 0.00 0.00 74 1019.6
20260506172005 58 224 0.0 3.0 0.00 0.00 0.00 74 1019.6
20260506171004 59 202 3.0 9.0 0.00 0.00 0.00 75 1019.4
20260506170505 59 178 3.0 6.0 0.00 0.00 0.00 73 1019.4
20260506165505 58 261 1.0 3.0 0.00 0.00 0.00 72 1019.6
20260506165005 58 356 1.0 3.0 0.00 0.00 0.00 73 1019.5
20260506164504 58 156 1.0 5.0 0.00 0.00 0.00 74 1019.5
20260506164005 57 204 3.0 3.0 0.00 0.00 0.00 75 1019.4
20260506163504 57 219 1.0 3.0 0.00 0.00 0.00 77 1019.6
20260506163005 56 219 3.0 5.0 0.00 0.00 0.00 76 1019.6
20260506162004 56 271 1.0 7.0 0.00 0.00 0.00 77 1019.5
20260506161504 55 220 2.0 3.0 0.00 0.00 0.00 76 1019.6
20260506160504 55 255 2.0 3.0 0.00 0.00 0.00 75 1019.5
20260506160005 55 219 0.0 2.0 0.00 0.00 0.00 76 1019.3
20260506155505 55 219 2.0 5.0 0.00 0.00 0.00 76 1019.3
20260506155005 55 216 2.0 5.0 0.00 0.00 0.00 77 1019.5
20260506154504 56 219 2.0 3.0 0.00 0.00 0.00 76 1019.6
20260506154004 56 219 2.0 5.0 0.00 0.00 0.00 76 1019.6
20260506153504 56 242 0.0 1.0 0.00 0.00 0.00 77 1019.6
20260506152504 55 242 0.0 0.0 0.00 0.00 0.00 79 1019.4
20260506152004 54 242 0.0 0.0 0.00 0.00 0.00 80 1019.4
20260506151505 54 242 0.0 0.0 0.00 0.00 0.00 81 1019.4
20260506151005 53 242 0.0 0.0 0.00 0.00 0.00 83 1019.4
20260506150505 53 242 0.0 0.0 0.00 0.00 0.00 83 1019.4
20260506150004 52 242 0.0 0.0 0.00 0.00 0.00 87 1019.5
20260506145504 52 242 0.0 0.0 0.00 0.00 0.00 88 1019.5
20260506144504 51 242 0.0 0.0 0.00 0.00 0.00 90 1019.3
20260506144005 51 242 0.0 0.0 0.00 0.00 0.00 90 1019.2
20260506143504 51 242 0.0 0.0 0.00 0.00 0.00 90 1019.2
20260506143005 50 242 0.0 0.0 0.00 0.00 0.00 91 1019.3
20260506142504 50 242 0.0 0.0 0.00 0.00 0.00 91 1019.2
20260506142004 50 175 0.0 0.0 0.00 0.00 0.00 91 1019.2
20260506141504 50 213 0.0 0.0 0.00 0.00 0.00 90 1019.0
20260506141004 50 213 0.0 0.0 0.00 0.00 0.00 90 1019.1
20260506140504 50 213 0.0 0.0 0.00 0.00 0.00 91 1019.1
20260506140005 49 213 0.0 0.0 0.00 0.00 0.00 92 1018.9
20260506135505 49 213 0.0 0.0 0.00 0.00 0.00 92 1018.9
20260506133004 48 212 0.0 0.0 0.00 0.00 0.00 91 1018.9
20260506132005 48 212 0.0 0.0 0.00 0.00 0.00 91 1018.7
20260506131504 48 212 0.0 0.0 0.00 0.00 0.00 92 1018.7
20260506131004 48 213 0.0 0.0 0.00 0.00 0.00 92 1018.7
20260506130505 48 212 0.0 0.0 0.00 0.00 0.00 92 1018.6
20260506125504 48 213 0.0 0.0 0.00 0.00 0.00 92 1018.5
20260506125004 48 213 0.0 0.0 0.00 0.00 0.00 93 1018.6
20260506124504 48 213 0.0 0.0 0.00 0.00 0.00 93 1018.6
20260506124004 48 212 0.0 0.0 0.00 0.01 0.00 93 1018.6
20260506123504 48 213 0.0 0.0 0.00 0.01 0.00 93 1018.4
20260506122005 48 212 0.0 0.0 0.00 0.02 0.00 93 1018.5
20260506121504 48 212 0.0 0.0 0.00 0.02 0.00 93 1018.4
20260506121005 48 212 0.0 0.0 0.00 0.02 0.00 93 1018.3
20260506120504 48 212 0.0 0.0 0.00 0.02 0.00 93 1018.4
20260506120004 48 212 0.0 0.0 0.00 0.02 0.00 93 1018.4
20260506115004 48 212 0.0 0.0 0.00 0.02 0.00 92 1018.4
20260506114504 48 212 0.0 0.0 0.00 0.02 0.00 93 1018.4
20260506114005 48 212 0.0 0.0 0.00 0.02 0.00 93 1018.4
20260506113504 48 212 0.0 0.0 0.00 0.03 0.00 93 1018.4
20260506113004 48 212 0.0 0.0 0.00 0.03 0.00 93 1018.2
20260506112005 48 212 0.0 0.0 0.00 0.03 0.00 93 1018.3
20260506111504 48 212 0.0 0.0 0.00 0.03 0.00 93 1018.2
20260506111004 48 212 0.0 0.0 0.00 0.04 0.00 94 1018.2
20260506110504 48 212 0.0 0.0 0.00 0.04 0.00 94 1018.2
20260506110005 48 212 0.0 0.0 0.00 0.04 0.00 94 1018.0
20260506104504 48 212 0.0 0.0 0.00 0.06 0.00 95 1017.8
20260506104004 48 212 0.0 0.0 0.00 0.08 0.00 95 1017.9
20260506103505 48 212 0.0 0.0 0.00 0.08 0.00 95 1017.9
20260506103005 48 212 0.0 0.0 0.00 0.09 0.00 95 1017.9
20260506102507 48 212 0.0 0.0 0.00 0.09 0.00 95 1017.8
20260506102008 47 212 0.0 0.0 0.00 0.10 0.00 95 1017.7
20260506101507 47 212 0.0 0.0 0.00 0.10 0.00 95 1017.6
20260506101005 47 212 0.0 0.0 0.00 0.10 0.00 95 1017.6
20260506100004 47 212 0.0 0.0 0.00 0.10 0.00 95 1017.6
20260506095505 47 212 0.0 0.0 0.00 0.10 0.00 95 1017.5
20260506095004 47 212 0.0 0.0 0.00 0.10 0.00 95 1017.7
20260506094504 47 212 0.0 0.0 0.00 0.10 0.00 95 1017.5
20260506093504 47 212 0.0 0.0 0.00 0.10 0.00 95 1017.4
20260506093004 47 212 0.0 0.0 0.00 0.10 0.00 95 1017.3
20260506092504 47 212 0.0 0.0 0.00 0.10 0.00 95 1017.4
20260506091505 47 212 0.0 0.0 0.00 0.10 0.00 94 1017.4
20260506091004 47 212 0.0 0.0 0.00 0.10 0.00 94 1017.5
20260506090504 48 212 0.0 0.0 0.00 0.10 0.00 94 1017.6
20260506090004 48 212 0.0 0.0 0.00 0.10 0.00 95 1017.6
20260506085505 48 212 0.0 0.0 0.00 0.10 0.00 95 1017.5
20260506085005 48 212 0.0 0.0 0.00 0.10 0.00 94 1017.6
20260506084504 48 212 0.0 0.0 0.00 0.10 0.00 94 1017.6
20260506083505 48 212 0.0 0.0 0.00 0.10 0.00 94 1017.8
20260506083006 48 212 0.0 0.0 0.00 0.10 0.00 94 1017.8
20260506082505 48 212 0.0 0.0 0.00 0.10 0.00 95 1017.8
20260506081504 49 212 0.0 0.0 0.00 0.10 0.00 95 1017.8
20260506081004 49 212 0.0 0.0 0.00 0.10 0.00 95 1017.8
20260506073004 48 212 1.0 2.0 0.00 0.11 0.00 95 1018.0
20260506072504 48 212 1.0 2.0 0.00 0.11 0.00 94 1017.7
20260506072004 48 212 0.0 0.0 0.00 0.12 0.00 94 1017.6
20260506071504 48 212 0.0 0.0 0.00 0.12 0.00 94 1017.5
20260506070505 48 212 0.0 0.0 0.00 0.12 0.00 94 1017.2
20260506062004 49 212 1.0 2.0 0.00 0.21 0.13 94 1017.0
20260506061504 49 212 0.0 0.0 0.00 0.21 0.13 94 1017.0
20260506051004 48 212 0.0 0.0 0.00 0.23 0.13 94 1016.5
20260506045004 49 212 1.0 2.0 0.00 0.23 0.13 94 1016.3
20260506044504 49 212 1.0 2.0 0.00 0.23 0.13 94 1016.1
20260506044004 49 212 1.0 2.0 0.00 0.23 0.13 94 1016.2
20260506043505 48 212 0.0 0.0 0.00 0.23 0.13 94 1016.2
20260506043004 48 212 0.0 0.0 0.00 0.23 0.13 94 1016.2
20260506042504 49 212 0.0 0.0 0.00 0.23 0.13 94 1016.2
20260506042004 49 212 0.0 1.0 0.00 0.24 0.13 93 1016.1
20260506041504 49 212 1.0 2.0 0.00 0.24 0.13 93 1016.0
20260506041004 49 212 0.0 1.0 0.00 0.24 0.13 93 1016.0
20260506040504 49 212 1.0 2.0 0.00 0.24 0.13 93 1016.0
20260506040004 49 212 0.0 0.0 0.00 0.24 0.13 93 1015.9
20260506035503 49 212 0.0 0.0 0.00 0.24 0.13 93 1015.9
20260506035004 49 212 0.0 0.0 0.00 0.24 0.13 93 1015.8
20260506034504 49 212 0.0 1.0 0.00 0.24 0.13 92 1015.5
20260506034004 49 212 0.0 0.0 0.00 0.24 0.13 92 1015.5
20260506033504 49 212 0.0 0.0 0.00 0.24 0.13 92 1015.3
20260506033005 50 212 0.0 0.0 0.00 0.24 0.13 92 1015.3
20260506032504 50 212 0.0 1.0 0.00 0.24 0.13 92 1015.3
20260506032004 50 212 0.0 0.0 0.00 0.24 0.13 92 1015.2
20260506031504 50 212 1.0 2.0 0.00 0.24 0.13 92 1015.3
20260506031004 50 212 0.0 2.0 0.00 0.24 0.13 92 1015.2
20260506030504 50 212 1.0 1.0 0.00 0.24 0.13 92 1015.1
20260506030004 51 212 0.0 1.0 0.00 0.24 0.13 92 1015.2
20260506025504 51 212 1.0 2.0 0.00 0.24 0.13 92 1015.2
20260506025004 51 212 1.0 2.0 0.00 0.24 0.13 92 1015.4
20260506024504 51 212 0.0 0.0 0.00 0.24 0.13 92 1015.3
20260506024004 51 212 0.0 0.0 0.00 0.24 0.13 92 1015.2
20260506023004 51 212 0.0 0.0 0.00 0.24 0.13 92 1015.3
20260506022504 51 212 0.0 0.0 0.00 0.24 0.13 92 1015.3
20260506022004 51 212 0.0 0.0 0.00 0.24 0.13 92 1015.5
20260506021504 51 212 0.0 0.0 0.00 0.24 0.13 92 1015.4
20260506021004 51 212 0.0 0.0 0.00 0.24 0.13 92 1015.1
20260506020504 51 212 0.0 0.0 0.00 0.24 0.13 92 1015.5
20260506020004 51 213 0.0 0.0 0.00 0.24 0.13 92 1015.2
20260506014005 51 212 0.0 0.0 0.00 0.24 0.13 92 1015.0
20260506013504 51 212 0.0 0.0 0.00 0.24 0.13 92 1015.1
20260506013003 51 212 0.0 0.0 0.00 0.24 0.13 92 1015.1
20260506012504 51 212 0.0 0.0 0.00 0.24 0.13 92 1015.1
20260506012006 51 212 0.0 0.0 0.00 0.24 0.13 92 1015.1
20260506011006 51 212 0.0 0.0 0.00 0.24 0.13 92 1015.0
20260506010506 51 212 0.0 0.0 0.00 0.24 0.13 92 1015.1
20260506010006 51 212 0.0 0.0 0.00 0.24 0.13 92 1015.0
20260506005506 51 212 0.0 0.0 0.00 0.24 0.13 93 1015.0
20260506005006 51 212 0.0 0.0 0.00 0.24 0.13 92 1015.0
20260506004506 50 212 0.0 1.0 0.00 0.24 0.13 92 1015.0
20260506004006 50 212 1.0 2.0 0.00 0.24 0.13 91 1015.0
20260506003006 51 213 1.0 3.0 0.00 0.24 0.13 90 1014.9
20260506002506 51 213 1.0 3.0 0.00 0.24 0.13 90 1014.9
20260506002006 51 213 0.0 2.0 0.00 0.24 0.13 90 1014.8
20260506001506 51 213 0.0 2.0 0.00 0.24 0.13 90 1014.8
20260506001005 51 213 1.0 2.0 0.00 0.24 0.13 89 1014.7
20260506000505 51 213 0.0 2.0 0.00 0.24 0.13 90 1014.8
20260506000005 51 213 0.0 1.0 0.00 0.24 0.13 91 1014.8
20260505235506 51 213 1.0 2.0 0.00 0.24 0.13 90 1014.6
20260505235006 51 213 1.0 3.0 0.00 0.24 0.13 90 1014.6
20260505234506 51 213 1.0 2.0 0.00 0.24 0.13 90 1014.6
20260505234006 51 213 0.0 1.0 0.00 0.24 0.13 91 1014.6
20260505233505 51 213 0.0 2.0 0.00 0.24 0.13 92 1014.5
20260505232506 50 213 0.0 0.0 0.00 0.24 0.13 92 1014.6
20260505232006 50 213 0.0 1.0 0.00 0.24 0.13 92 1014.4
20260505231506 50 213 0.0 2.0 0.00 0.24 0.13 92 1014.5
20260505231006 50 213 0.0 3.0 0.00 0.24 0.13 92 1014.5
20260505230505 50 213 2.0 3.0 0.00 0.24 0.13 91 1014.5
20260505230006 50 213 2.0 3.0 0.00 0.24 0.13 91 1014.5
20260505225505 50 212 1.0 3.0 0.00 0.24 0.13 92 1014.4
20260505225006 50 212 0.0 2.0 0.00 0.24 0.13 92 1014.4
20260505224505 50 212 1.0 3.0 0.00 0.24 0.13 91 1014.4
20260505223506 50 212 2.0 3.0 0.00 0.24 0.13 90 1014.5
20260505223007 50 212 1.0 3.0 0.00 0.24 0.13 90 1014.6
20260505222506 50 212 1.0 3.0 0.00 0.24 0.13 89 1014.6
20260505222006 51 212 2.0 3.0 0.00 0.25 0.13 88 1014.5
20260505221006 51 212 0.0 2.0 0.00 0.25 0.13 89 1014.7
20260505220505 51 212 0.0 2.0 0.00 0.25 0.13 89 1014.7